Location: Daerah Kuala Lumpur
(3.1167°N, 101.6833°E)
Time: 09:46:13
(UTC+00:00)

Centaur AC-72 - Pass Details

Date: 05 August 2024
Orbit: 1096 x 35260 km, 18.9° (Epoch: 15 September)

Event Time Altitude Azimuth Distance (km) Brightness Sun altitude
Exits shadow 21:25:49 21° 184° (S) 2,240 4.1 -26.0°
Drops below altitude 10° 21:29:14 10° 147° (SSE) 2,992 5.2 -25.2°
Sets 21:32:42 0° 129° (SE) 4,348 6.3 -24.4°
